Theta_e
343 349 360 363 362 361 361 362 362 361 363 363 363 363 363 363 364 363 362 362 361 361 361 360 360 360 360 360 360 361 359 363 362 361 361 362 362 363 362 362 358 352 360
344 350 360 363 364 362 361 361 361 362 362 363 363 362 363 363 362 363 363 362 362 361 361 362 362 361 360 361 362 361 360 362 361 359 360 359 358 359 360 361 360 357 359
346 353 357 364 365 364 361 360 362 363 363 363 362 362 363 362 363 362 363 363 362 362 362 363 363 363 362 361 361 360 362 362 361 358 356 350 355 358 357 360 360 360 360
349 352 359 366 366 363 362 362 362 363 362 363 363 362 362 362 363 362 361 360 363 362 362 362 361 362 362 362 360 362 360 358 359 355 346 348 352 359 359 361 360 359 359
348 353 359 366 366 362 363 362 363 363 363 362 362 362 363 362 362 362 362 361 361 362 362 362 363 362 361 360 359 361 356 353 348 343 347 343 346 357 360 360 359 359 359
348 355 363 364 363 363 364 363 363 363 362 362 362 360 363 361 363 361 362 362 361 362 362 362 362 362 361 360 359 359 353 352 344 342 343 344 346 358 358 358 359 358 358
349 356 359 366 367 364 363 363 363 362 361 360 360 361 362 362 362 362 362 361 362 362 362 360 360 360 359 358 357 357 356 355 345 340 344 343 350 361 358 358 358 358 358
352 356 358 364 365 364 364 363 362 362 361 361 360 360 361 362 360 361 360 362 361 361 362 360 360 359 358 356 355 355 355 354 348 345 343 339 357 359 359 360 359 359 358
353 353 354 356 360 363 364 363 363 362 361 361 359 360 359 359 360 361 361 360 361 362 361 362 359 359 358 356 356 356 357 354 345 344 346 348 362 362 359 359 359 358 359
351 353 352 353 354 356 359 363 363 362 361 362 360 359 360 358 358 359 360 360 361 361 361 360 360 358 358 356 355 355 356 355 346 344 343 346 361 359 360 360 358 357 356
348 350 352 353 353 353 354 356 362 363 361 362 359 360 360 349 346 350 354 358 359 360 358 360 360 360 358 357 356 356 354 347 342 345 343 343 356 360 360 358 357 358 358
342 344 350 353 353 352 357 353 352 353 353 353 353 352 351 348 347 350 351 356 357 358 359 359 358 358 356 350 349 355 351 346 342 338 343 344 353 359 359 361 360 360 359
340 344 346 352 352 350 352 349 348 351 350 350 350 351 349 350 346 345 344 347 346 356 351 353 353 352 349 345 344 344 349 348 345 342 343 353 355 358 360 360 360 361 361
337 343 348 345 346 349 347 347 345 346 350 351 351 350 348 346 345 343 340 343 344 345 343 344 345 348 348 345 342 343 347 349 344 343 343 353 357 357 357 359 361 359 361
336 340 343 347 347 348 345 345 345 346 348 350 350 350 349 345 343 344 343 342 343 343 341 340 343 344 344 341 341 344 346 345 345 346 344 352 357 359 356 358 360 360 360
338 339 345 347 348 348 345 345 346 346 349 347 347 349 348 347 348 346 343 343 340 340 342 344 342 344 343 343 343 345 344 345 339 338 344 343 358 358 358 359 359 359 359
341 343 344 346 347 344 345 344 347 348 348 345 345 348 347 346 344 345 344 343 342 342 342 342 342 343 342 344 345 346 344 344 341 340 337 343 344 360 359 358 359 360 361
342 346 346 349 348 346 345 348 348 349 349 347 347 347 348 347 348 349 347 346 348 345 344 341 339 337 336 339 340 342 342 340 338 338 338 340 347 352 354 358 359 360 360
343 345 347 348 346 345 349 351 348 349 348 349 343 346 346 347 349 348 348 347 348 345 345 344 342 341 338 335 337 339 341 339 340 341 338 338 342 349 349 355 357 358 359
339 345 346 347 346 347 349 347 348 349 350 343 341 343 344 347 348 344 343 343 346 346 344 344 342 341 338 338 342 343 343 344 344 343 343 344 344 349 349 348 349 351 358
342 341 344 346 346 345 338 338 342 344 348 344 341 343 344 345 346 342 343 347 347 342 343 345 343 342 341 341 343 340 341 345 344 345 346 347 346 344 347 349 347 350 351
341 345 346 347 347 342 340 343 348 347 348 349 350 349 350 347 348 346 345 349 351 346 345 347 346 341 340 342 337 334 329 333 339 344 344 344 342 342 349 349 345 346 350
342 345 345 351 349 347 350 347 348 350 350 348 350 350 352 352 352 350 352 349 349 348 347 347 349 345 336 338 341 336 330 324 330 336 335 335 335 339 345 349 349 346 346
334 341 343 347 350 352 344 339 336 344 342 346 345 349 352 354 354 354 350 349 348 350 345 346 348 344 341 336 337 343 342 340 328 324 332 336 337 335 338 343 342 344 347
336 340 342 338 343 349 343 337 339 342 345 348 345 339 343 348 349 349 346 347 345 343 341 339 342 343 342 339 337 337 336 335 332 329 324 327 335 338 341 344 344 344 345
339 338 337 337 340 348 346 341 343 341 338 339 338 339 341 341 340 339 339 336 335 335 335 332 334 340 338 338 339 336 333 331 330 332 329 326 328 333 338 341 343 343 346
Wind_Speed
5 5 8 11 13 13 13 13 14 14 15 15 15 15 14 14 14 15 14 14 14 12 11 8 6 7 8 9 11 11 11 12 15 16 15 13 12 14 13 14 13 8 11
7 4 6 11 14 14 13 12 12 12 14 14 14 14 13 13 12 13 12 12 11 11 10 11 11 10 10 10 12 12 12 12 14 15 13 11 10 10 11 12 12 9 11
6 4 4 11 12 13 13 11 11 11 12 12 12 12 11 11 11 11 11 11 11 10 11 12 12 12 11 11 12 11 15 14 14 12 9 4 3 10 10 11 11 11 11
8 5 4 9 12 14 13 11 11 11 11 10 10 10 10 9 11 11 11 10 10 10 11 12 11 12 11 10 11 14 10 9 11 12 5 5 4 10 12 12 11 10 10
7 6 6 11 12 13 12 11 11 10 10 9 9 10 9 10 11 11 11 10 9 9 10 11 10 10 10 10 11 12 10 8 4 6 5 3 3 8 10 10 10 11 11
9 8 10 13 13 12 13 12 10 10 9 8 9 10 10 10 10 10 10 10 10 11 11 11 11 10 10 12 11 10 9 7 7 4 4 3 3 8 9 8 9 9 9
8 7 7 13 14 13 12 12 10 9 7 7 8 10 9 9 9 10 10 11 11 11 11 11 10 9 9 10 8 9 6 5 3 3 4 3 4 9 10 9 10 10 10
11 9 8 11 13 12 12 12 10 9 7 6 7 8 9 9 9 10 10 11 10 12 12 12 10 8 7 8 8 6 4 1 7 3 4 1 7 10 11 10 11 11 10
9 9 7 6 10 13 12 12 11 10 8 7 7 8 10 8 9 8 9 10 10 10 11 11 10 9 6 5 7 7 8 4 3 1 2 3 9 11 10 10 10 10 11
7 7 7 7 6 5 5 12 11 10 9 8 8 8 9 9 9 8 8 9 10 10 11 11 10 8 6 3 2 2 7 8 3 3 3 3 9 12 12 11 10 9 9
3 6 7 6 6 6 5 5 8 9 10 9 7 8 6 3 3 5 5 8 10 10 10 9 10 9 7 6 4 3 4 3 4 2 1 7 9 13 13 12 12 12 12
5 6 8 7 7 6 5 5 5 4 1 2 3 4 3 4 4 4 6 10 11 11 10 9 7 9 8 3 2 4 1 4 4 4 3 10 11 13 13 16 15 14 13
7 7 8 8 7 7 7 4 2 2 2 3 5 4 4 3 3 2 2 2 2 7 1 4 3 2 3 3 1 2 3 4 3 3 4 12 15 16 14 15 16 16 16
7 8 8 8 7 6 2 4 4 4 3 3 5 6 4 3 4 4 3 4 4 2 4 3 3 4 4 3 4 5 6 5 4 4 6 14 18 15 17 17 18 17 17
9 10 7 8 9 8 7 4 3 3 3 5 4 5 4 2 3 3 4 4 4 3 3 4 4 3 3 4 5 5 7 5 5 4 5 18 20 18 19 19 18 18 18
14 13 9 9 10 9 5 6 4 3 4 4 3 5 5 4 4 4 3 4 4 4 3 4 4 4 4 3 4 5 8 5 5 5 4 6 21 20 18 20 19 16 18
13 13 15 11 9 9 9 6 5 4 4 5 4 5 6 5 5 5 4 4 4 4 5 4 4 3 3 4 6 4 4 6 4 5 5 4 6 18 22 23 19 17 17
14 15 15 13 13 11 7 5 4 2 3 2 2 3 2 3 3 4 3 4 4 4 3 3 2 3 4 3 3 4 4 4 6 6 4 4 4 5 15 23 21 19 19
15 15 14 13 12 8 6 4 3 5 4 3 2 1 3 5 5 3 2 3 2 3 3 3 4 3 3 4 4 4 4 5 6 6 6 5 6 6 5 12 21 20 21
13 15 14 10 10 7 5 4 2 2 1 1 2 2 1 1 3 2 1 3 2 1 3 3 2 4 3 4 4 5 6 6 5 5 6 6 5 4 5 7 7 11 21
6 6 11 10 9 7 3 3 1 2 2 2 3 3 5 4 4 3 3 3 3 3 4 4 2 3 2 3 2 3 2 4 5 4 4 3 3 3 5 6 4 4 6
10 7 8 11 10 7 4 2 2 2 2 3 3 5 6 6 6 4 5 4 4 3 5 5 5 2 2 3 2 0 3 3 2 3 1 3 4 4 5 4 4 4 4
8 9 8 8 10 9 8 4 2 3 1 1 1 3 4 5 5 5 5 4 4 3 3 3 2 2 2 2 4 3 2 2 2 1 3 3 5 3 2 4 4 4 3
8 8 9 8 9 7 8 5 6 3 2 1 1 3 1 1 2 3 3 2 1 3 4 3 2 1 2 2 2 2 3 2 2 4 2 3 4 5 5 5 5 4 2
8 8 10 7 6 6 10 6 6 6 3 4 3 3 4 4 6 6 5 4 5 4 3 4 4 4 0 1 1 1 2 2 1 3 4 4 2 4 5 5 4 3 3
8 7 8 9 6 7 7 6 7 6 6 4 4 2 2 3 3 5 6 5 4 4 4 4 4 3 2 2 1 0 1 1 2 2 2 4 4 3 3 4 3 3 3
Wind_Direction
220 195 149 136 125 115 107 98 98 105 104 103 98 93 95 104 113 118 117 119 120 124 123 122 150 136 125 124 114 111 108 116 117 116 125 136 146 139 136 131 129 136 128
134 158 160 153 135 125 118 116 108 105 105 107 105 104 103 103 104 99 106 111 122 129 123 109 117 119 110 104 103 109 111 111 117 119 120 128 133 135 145 130 132 144 134
119 140 142 139 134 132 128 125 119 110 106 104 105 104 102 104 110 110 106 112 116 124 122 111 116 111 110 111 110 116 111 123 121 112 103 81 112 159 151 137 137 137 130
136 132 114 127 133 137 135 131 117 115 116 114 113 113 119 125 122 118 112 115 119 126 116 119 118 116 118 111 116 111 119 128 137 120 73 82 116 124 134 141 148 135 135
119 125 136 135 140 139 133 129 129 129 123 125 124 127 134 122 127 122 123 125 125 119 123 117 112 114 112 107 108 121 130 125 85 76 89 81 68 124 137 145 146 144 143
131 136 130 138 145 145 142 141 139 131 128 137 135 129 132 131 127 131 131 125 129 122 124 124 115 108 102 106 111 133 140 143 84 100 126 90 85 150 146 152 145 149 142
131 133 140 143 144 147 149 150 146 141 140 143 134 132 141 137 139 136 137 136 134 131 132 129 126 117 111 108 110 140 187 188 129 162 129 95 169 161 160 162 155 151 153
145 145 155 152 144 151 158 155 153 160 159 159 141 138 143 152 152 149 143 140 147 147 146 139 135 125 114 108 103 98 132 164 165 165 94 131 195 167 155 158 161 161 162
143 147 140 158 162 169 167 162 166 171 171 171 163 161 165 165 163 161 154 153 162 157 154 147 151 138 136 125 107 104 134 170 145 99 181 200 189 167 164 167 167 165 169
146 154 161 159 165 173 174 171 177 180 179 182 184 179 181 172 162 169 170 175 169 166 166 167 163 160 169 171 153 135 141 176 184 186 198 197 194 177 171 175 180 174 176
139 171 162 167 172 177 181 185 185 197 197 193 201 196 185 151 178 177 186 191 186 182 183 185 176 180 190 208 232 242 151 152 215 233 235 250 221 192 182 182 188 190 189
176 184 177 176 179 174 181 191 182 194 232 228 219 217 174 188 200 180 205 202 196 197 191 200 194 198 203 203 243 277 161 171 181 228 197 215 235 226 201 194 194 193 197
194 175 187 190 194 180 186 170 182 175 201 223 227 221 199 189 212 201 203 240 263 214 196 204 217 208 159 168 202 261 261 209 203 218 245 215 228 227 229 205 206 202 198
190 199 176 195 182 185 171 199 189 177 194 223 224 211 197 213 189 191 211 206 221 208 188 194 210 228 208 220 231 257 253 214 201 199 218 240 220 214 241 223 212 209 203
186 198 217 171 161 181 185 227 216 200 200 220 223 221 194 180 217 184 221 203 211 187 201 229 220 234 241 217 265 263 279 248 232 201 202 233 236 213 229 229 219 214 213
204 190 167 177 168 175 191 207 199 186 214 200 226 227 218 187 167 208 212 238 229 206 212 205 209 215 232 212 242 231 243 250 254 246 208 233 235 219 229 237 227 220 218
199 185 170 178 162 174 188 195 176 197 179 182 219 224 218 196 198 191 183 224 226 222 226 228 231 224 247 245 242 215 251 231 245 230 234 235 260 229 225 230 228 222 222
167 169 169 173 174 176 183 163 156 163 144 186 214 246 260 194 204 204 200 217 214 220 196 218 232 245 248 240 251 241 238 250 249 253 230 211 236 236 236 229 224 221 220
167 163 176 170 168 175 165 145 160 150 163 170 212 177 231 210 187 191 209 232 232 215 218 189 210 214 237 239 245 248 249 248 246 242 241 241 216 229 222 240 230 224 223
175 172 172 164 159 155 120 95 89 98 183 152 213 151 219 180 131 161 266 289 257 256 285 290 222 212 229 235 255 259 250 247 219 225 246 248 237 212 228 238 244 233 227
132 183 166 147 153 140 137 131 94 217 184 186 194 240 235 231 213 200 232 255 239 230 238 239 239 238 266 221 263 282 290 277 230 233 223 225 225 226 253 238 221 239 241
180 150 144 163 156 148 174 139 159 174 208 192 178 227 219 216 215 206 228 260 253 257 261 250 218 200 252 201 217 248 301 317 327 252 242 246 245 234 217 186 200 153 230
172 148 140 152 165 165 109 114 1 30 341 46 294 258 224 239 216 218 228 233 261 242 266 287 305 187 215 287 221 203 309 262 315 284 277 255 251 241 244 233 226 225 227
180 144 129 151 161 145 156 136 150 214 200 288 186 276 184 263 80 18 339 309 333 14 7 0 349 251 193 262 306 242 267 235 230 323 304 257 242 229 232 230 228 221 179
155 159 151 159 149 166 171 155 164 191 213 151 266 253 49 60 69 75 69 46 53 48 33 34 1 17 26 243 193 317 282 281 256 207 280 306 313 240 241 241 237 240 187
183 137 140 149 173 154 153 164 184 165 187 140 182 187 115 78 62 53 74 63 58 55 32 4 357 49 36 59 4 103 187 253 246 247 260 276 264 299 279 289 244 205 195